OAS4005 ZSPD-RJGG

Flight info

Callsign OAS4005
Flight time 1h 52m
Altitude 35000
Route LAM93D LAMEN/N0473F350 A593 SADLI Y590 BEDAR Y591 FUE Y23 OOITA Y41 NATCH Y755 CARDS
Aircraft B77L/H-SDE1E2E3FGHIJ2J3J4J5M1RWXY/LB1D1

Departure

Time 2026-05-07 18:08
Airport Shanghai Pudong International Airport (ZSPD)

Arrival

Time 2026-05-07 20:00
Airport Chubu Centrair International Airport (RJGG)
Time Latitude Longitude Altitude Speed Heading
2026-05-07 17:58 31.12268 121.80805 24 ft 0 kts 71°
2026-05-07 18:00 31.12260 121.80779 24 ft 4 kts 69°
2026-05-07 18:00 31.12250 121.80751 24 ft 4 kts 63°
2026-05-07 18:00 31.12239 121.80729 24 ft 3 kts 50°
2026-05-07 18:01 31.12228 121.80717 24 ft 2 kts 28°
2026-05-07 18:01 31.12218 121.80712 24 ft 2 kts
2026-05-07 18:01 31.12207 121.80712 24 ft 2 kts 353°
2026-05-07 18:01 31.12196 121.80714 24 ft 2 kts 346°
2026-05-07 18:02 31.12180 121.80719 24 ft 0 kts 344°
2026-05-07 18:04 31.12184 121.80718 24 ft 3 kts 344°
2026-05-07 18:04 31.12238 121.80699 27 ft 14 kts 344°
2026-05-07 18:04 31.12360 121.80658 27 ft 20 kts 344°
2026-05-07 18:05 31.12492 121.80600 28 ft 20 kts 341°
2026-05-07 18:05 31.12621 121.80540 29 ft 20 kts 323°
2026-05-07 18:05 31.12645 121.80432 24 ft 14 kts 249°
2026-05-07 18:05 31.12613 121.80329 29 ft 14 kts 255°
2026-05-07 18:06 31.12643 121.80237 24 ft 14 kts 332°
2026-05-07 18:06 31.12733 121.80200 27 ft 14 kts 334°
2026-05-07 18:06 31.12778 121.80107 26 ft 14 kts 260°
2026-05-07 18:06 31.12738 121.80002 28 ft 14 kts 248°
2026-05-07 18:07 31.12720 121.79898 25 ft 9 kts 289°
2026-05-07 18:07 31.12773 121.79854 29 ft 10 kts 336°
2026-05-07 18:07 31.12796 121.79845 29 ft 15 kts 341°
2026-05-07 18:07 31.13204 121.79691 28 ft 107 kts 342°
2026-05-07 18:08 31.14158 121.79341 112 ft 170 kts 343°
2026-05-07 18:08 31.15312 121.78921 923 ft 174 kts 345°
2026-05-07 18:08 31.16446 121.78509 1991 ft 169 kts 346°
2026-05-07 18:08 31.17622 121.78076 2524 ft 185 kts 343°
2026-05-07 18:09 31.18936 121.77532 2814 ft 217 kts 343°
2026-05-07 18:09 31.20446 121.76912 3308 ft 237 kts 343°
2026-05-07 18:09 31.22031 121.76265 4147 ft 246 kts 342°
2026-05-07 18:09 31.23676 121.75605 4963 ft 254 kts 342°
2026-05-07 18:10 31.25372 121.74932 5817 ft 261 kts 341°
2026-05-07 18:10 31.27108 121.74244 6656 ft 267 kts 340°
2026-05-07 18:10 31.28887 121.73542 7509 ft 272 kts 340°
2026-05-07 18:10 31.30681 121.72943 8312 ft 277 kts 351°
2026-05-07 18:11 31.32639 121.73153 9041 ft 290 kts 16°
2026-05-07 18:11 31.33871 121.73867 9569 ft 297 kts 34°
2026-05-07 18:11 31.35504 121.76476 10550 ft 313 kts 67°
2026-05-07 18:11 31.36074 121.79031 10867 ft 338 kts 78°
2026-05-07 18:12 31.36482 121.81860 11081 ft 366 kts 79°
2026-05-07 18:12 31.36907 121.84895 11455 ft 387 kts 79°
2026-05-07 18:12 31.37392 121.88034 12152 ft 397 kts 77°
2026-05-07 18:12 31.37730 121.91237 12736 ft 403 kts 92°
2026-05-07 18:13 31.37057 121.94444 13432 ft 411 kts 117°
2026-05-07 18:13 31.35426 121.97175 14311 ft 411 kts 138°
2026-05-07 18:13 31.33161 121.99187 15106 ft 409 kts 157°
2026-05-07 18:13 31.30530 122.00351 15834 ft 405 kts 168°
2026-05-07 18:14 31.27805 122.01310 16532 ft 412 kts 169°
2026-05-07 18:14 31.25048 122.02269 17359 ft 415 kts 169°
2026-05-07 18:14 31.22276 122.03262 18145 ft 419 kts 168°
2026-05-07 18:14 31.19479 122.04293 18842 ft 424 kts 168°
2026-05-07 18:15 31.16647 122.05349 19451 ft 431 kts 168°
2026-05-07 18:15 31.13865 122.06748 19920 ft 447 kts 153°
2026-05-07 18:15 31.11497 122.09195 20471 ft 461 kts 134°
2026-05-07 18:15 31.09446 122.12111 21005 ft 468 kts 133°
2026-05-07 18:16 31.07366 122.15053 21541 ft 473 kts 134°
2026-05-07 18:16 31.05225 122.17989 22137 ft 477 kts 135°
2026-05-07 18:16 31.03043 122.20926 22711 ft 480 kts 135°
2026-05-07 18:16 31.01103 122.24114 23081 ft 492 kts 119°
2026-05-07 18:17 30.99982 122.27924 23482 ft 503 kts 100°
2026-05-07 18:17 30.99810 122.31997 24020 ft 505 kts 88°
2026-05-07 18:17 30.99940 122.36095 24501 ft 509 kts 88°
2026-05-07 18:17 31.00014 122.40239 24949 ft 513 kts 89°
2026-05-07 18:18 31.00024 122.44420 25405 ft 518 kts 90°
2026-05-07 18:18 31.00021 122.48629 25881 ft 522 kts 90°
2026-05-07 18:18 31.00020 122.52870 26359 ft 525 kts 90°
2026-05-07 18:18 31.00021 122.57137 26823 ft 529 kts 90°
2026-05-07 18:19 31.00024 122.61431 27257 ft 533 kts 90°
2026-05-07 18:19 31.00026 122.65766 27692 ft 536 kts 90°
2026-05-07 18:19 31.00029 122.70130 28133 ft 540 kts 90°
2026-05-07 18:19 31.00031 122.74517 28566 ft 543 kts 90°
2026-05-07 18:20 31.00030 122.78931 28989 ft 547 kts 90°
2026-05-07 18:20 31.00026 122.83382 29406 ft 550 kts 90°
2026-05-07 18:20 31.00020 122.87851 29810 ft 553 kts 90°
2026-05-07 18:20 31.00016 122.92344 30176 ft 557 kts 90°
2026-05-07 18:21 31.00135 122.96847 30531 ft 556 kts 82°
2026-05-07 18:21 31.01037 123.01215 30897 ft 554 kts 66°
2026-05-07 18:21 31.02816 123.05139 31450 ft 541 kts 49°
2026-05-07 18:21 31.05075 123.08610 31918 ft 537 kts 48°
2026-05-07 18:22 31.07333 123.12084 32351 ft 538 kts 48°
2026-05-07 18:22 31.08813 123.14405 32682 ft 537 kts 49°
2026-05-07 18:22 31.11751 123.19116 33362 ft 535 kts 49°
2026-05-07 18:22 31.13910 123.22639 33872 ft 533 kts 50°
2026-05-07 18:23 31.16056 123.26165 34331 ft 532 kts 50°
2026-05-07 18:23 31.18199 123.29689 34720 ft 532 kts 50°
2026-05-07 18:23 31.20348 123.33220 35020 ft 534 kts 49°
2026-05-07 18:24 31.24661 123.40297 35114 ft 539 kts 49°
2026-05-07 18:24 31.28984 123.47407 35111 ft 534 kts 49°
2026-05-07 18:25 31.33271 123.54466 35115 ft 531 kts 50°
2026-05-07 18:25 31.37562 123.61495 35122 ft 531 kts 49°
2026-05-07 18:26 31.41866 123.68521 35125 ft 531 kts 49°
2026-05-07 18:26 31.46165 123.75565 35115 ft 533 kts 50°
2026-05-07 18:27 31.50468 123.82640 35112 ft 533 kts 50°
2026-05-07 18:27 31.54778 123.89733 35110 ft 534 kts 50°
2026-05-07 18:28 31.59095 123.96850 35102 ft 537 kts 49°
2026-05-07 18:28 31.62434 124.04746 35123 ft 550 kts 72°
2026-05-07 18:29 31.64247 124.13506 35110 ft 554 kts 75°
2026-05-07 18:29 31.66000 124.22271 35110 ft 556 kts 73°
2026-05-07 18:30 31.67917 124.31143 35107 ft 558 kts 73°
2026-05-07 18:30 31.69880 124.39947 35102 ft 557 kts 72°
2026-05-07 18:31 31.71837 124.48752 35091 ft 557 kts 73°
2026-05-07 18:31 31.73758 124.57485 35094 ft 555 kts 73°
2026-05-07 18:32 31.75677 124.66261 35088 ft 554 kts 73°
2026-05-07 18:32 31.77585 124.75011 35085 ft 552 kts 73°
2026-05-07 18:33 31.79484 124.83743 35080 ft 550 kts 73°
2026-05-07 18:33 31.81366 124.92452 35080 ft 549 kts 75°
2026-05-07 18:34 31.82227 125.01370 35097 ft 551 kts 90°
2026-05-07 18:34 31.81496 125.10310 35084 ft 549 kts 102°
2026-05-07 18:35 31.79969 125.19104 35082 ft 549 kts 103°
2026-05-07 18:35 31.78446 125.27897 35074 ft 549 kts 102°
2026-05-07 18:36 31.76992 125.36706 35071 ft 549 kts 102°
2026-05-07 18:36 31.75552 125.45511 35076 ft 549 kts 102°
2026-05-07 18:37 31.74098 125.54310 35077 ft 548 kts 102°
2026-05-07 18:37 31.72940 125.63160 35065 ft 549 kts 92°
2026-05-07 18:38 31.73333 125.72090 35073 ft 548 kts 79°
2026-05-07 18:38 31.74797 125.79304 35056 ft 545 kts 72°
2026-05-07 18:39 31.76820 125.87890 35062 ft 546 kts 73°
2026-05-07 18:39 31.78706 125.96532 35065 ft 546 kts 73°
2026-05-07 18:40 31.80585 126.05168 35060 ft 545 kts 73°
2026-05-07 18:40 31.82472 126.13802 35059 ft 545 kts 73°
2026-05-07 18:41 31.84355 126.22442 35056 ft 545 kts 73°
2026-05-07 18:41 31.86229 126.31087 35056 ft 545 kts 73°
2026-05-07 18:42 31.88099 126.39758 35279 ft 550 kts 74°
2026-05-07 18:42 31.89037 126.44116 35629 ft 549 kts 74°
2026-05-07 18:42 31.89973 126.48468 36014 ft 548 kts 74°
2026-05-07 18:42 31.90916 126.52805 36343 ft 547 kts 73°
2026-05-07 18:43 31.91874 126.57144 36626 ft 548 kts 73°
2026-05-07 18:43 31.92838 126.61490 36907 ft 548 kts 72°
2026-05-07 18:43 31.93803 126.65835 37014 ft 550 kts 72°
2026-05-07 18:44 31.95696 126.74421 37024 ft 540 kts 72°
2026-05-07 18:44 31.97571 126.82986 37032 ft 535 kts 73°
2026-05-07 18:45 31.99425 126.91473 37031 ft 535 kts 73°
2026-05-07 18:45 32.01275 126.99974 37032 ft 536 kts 73°
2026-05-07 18:46 32.03127 127.08507 37029 ft 538 kts 73°
2026-05-07 18:46 32.05549 127.16799 37030 ft 534 kts 63°
2026-05-07 18:47 32.08642 127.24693 37026 ft 534 kts 62°
2026-05-07 18:47 32.11722 127.32675 37031 ft 535 kts 63°
2026-05-07 18:48 32.14742 127.40713 37030 ft 536 kts 63°
2026-05-07 18:48 32.17754 127.48761 37025 ft 536 kts 63°
2026-05-07 18:49 32.20757 127.56804 37016 ft 535 kts 63°
2026-05-07 18:49 32.23757 127.64847 37018 ft 535 kts 63°
2026-05-07 18:50 32.26748 127.72883 37020 ft 534 kts 63°
2026-05-07 18:50 32.29731 127.80919 37014 ft 533 kts 63°
2026-05-07 18:51 32.32702 127.88942 37007 ft 532 kts 63°
2026-05-07 18:51 32.35661 127.96952 37010 ft 531 kts 64°
2026-05-07 18:52 32.38612 128.04962 37010 ft 531 kts 64°
2026-05-07 18:52 32.41557 128.12969 37000 ft 531 kts 64°
2026-05-07 18:53 32.44500 128.20990 37001 ft 531 kts 64°
2026-05-07 18:53 32.47438 128.29019 37002 ft 532 kts 64°
2026-05-07 18:54 32.50375 128.37062 37001 ft 532 kts 64°
2026-05-07 18:54 32.53310 128.45123 36998 ft 533 kts 64°
2026-05-07 18:55 32.56245 128.53202 36987 ft 534 kts 64°
2026-05-07 18:55 32.59176 128.61293 36993 ft 534 kts 64°
2026-05-07 18:56 32.62108 128.69401 36988 ft 535 kts 64°
2026-05-07 18:56 32.65037 128.77519 36986 ft 535 kts 64°
2026-05-07 18:57 32.67639 128.85747 36981 ft 538 kts 74°
2026-05-07 18:57 32.69403 128.94386 36985 ft 539 kts 76°
2026-05-07 18:58 32.71087 129.03041 36965 ft 538 kts 76°
2026-05-07 18:58 32.72814 129.11677 36955 ft 536 kts 76°
2026-05-07 18:59 32.74557 129.20268 36958 ft 535 kts 76°
2026-05-07 18:59 32.76295 129.28840 36961 ft 533 kts 76°
2026-05-07 19:00 32.78017 129.37396 36962 ft 532 kts 76°
2026-05-07 19:00 32.79730 129.45940 36962 ft 532 kts 77°
2026-05-07 19:01 32.81437 129.54488 36961 ft 531 kts 77°
2026-05-07 19:01 32.83137 129.63033 36964 ft 531 kts 77°
2026-05-07 19:02 32.84829 129.71578 36971 ft 531 kts 77°
2026-05-07 19:02 32.86503 129.80135 36962 ft 532 kts 77°
2026-05-07 19:03 32.88168 129.88701 36959 ft 531 kts 77°
2026-05-07 19:03 32.89829 129.97274 36966 ft 532 kts 77°
2026-05-07 19:04 32.91486 130.05854 36970 ft 532 kts 78°
2026-05-07 19:04 32.93137 130.14437 36963 ft 532 kts 77°
2026-05-07 19:05 32.94781 130.23017 36951 ft 532 kts 78°
2026-05-07 19:05 32.96420 130.31594 36947 ft 531 kts 78°
2026-05-07 19:06 32.98050 130.40165 36942 ft 530 kts 78°
2026-05-07 19:06 33.00477 130.53005 36943 ft 530 kts 78°
2026-05-07 19:07 33.02078 130.61512 36944 ft 529 kts 78°
2026-05-07 19:07 33.03687 130.70072 36940 ft 529 kts 78°
2026-05-07 19:08 33.05283 130.78632 36941 ft 529 kts 78°
2026-05-07 19:08 33.06876 130.87193 36912 ft 529 kts 78°
2026-05-07 19:09 33.08464 130.95761 36929 ft 529 kts 78°
2026-05-07 19:09 33.10042 131.04314 36941 ft 528 kts 78°
2026-05-07 19:10 33.11610 131.12862 36927 ft 528 kts 78°
2026-05-07 19:10 33.13178 131.21422 36913 ft 528 kts 78°
2026-05-07 19:11 33.14739 131.29973 36922 ft 527 kts 79°
2026-05-07 19:11 33.16288 131.38517 36911 ft 527 kts 79°
2026-05-07 19:12 33.17832 131.47056 36906 ft 526 kts 79°
2026-05-07 19:12 33.19368 131.55591 36912 ft 525 kts 79°
2026-05-07 19:13 33.20895 131.64111 36924 ft 525 kts 79°
2026-05-07 19:13 33.22415 131.72643 36910 ft 525 kts 79°
2026-05-07 19:14 33.23873 131.81182 36920 ft 525 kts 80°
2026-05-07 19:14 33.25310 131.89737 36918 ft 525 kts 80°
2026-05-07 19:15 33.26749 131.98292 36912 ft 525 kts 80°
2026-05-07 19:15 33.28188 132.06849 36910 ft 525 kts 80°
2026-05-07 19:16 33.29620 132.15397 36904 ft 524 kts 80°
2026-05-07 19:16 33.31043 132.23934 36910 ft 523 kts 80°
2026-05-07 19:17 33.32457 132.32457 36909 ft 523 kts 80°
2026-05-07 19:17 33.33864 132.40976 36906 ft 522 kts 80°
2026-05-07 19:18 33.35292 132.49431 36902 ft 523 kts 77°
2026-05-07 19:18 33.37204 132.57820 36900 ft 523 kts 75°
2026-05-07 19:19 33.39210 132.66180 36888 ft 522 kts 75°
2026-05-07 19:19 33.41180 132.74544 36894 ft 522 kts 75°
2026-05-07 19:20 33.43119 132.82928 36895 ft 523 kts 75°
2026-05-07 19:20 33.45054 132.91325 36891 ft 523 kts 75°
2026-05-07 19:21 33.46982 132.99715 36888 ft 522 kts 75°
2026-05-07 19:21 33.48897 133.08107 36885 ft 522 kts 75°
2026-05-07 19:22 33.50794 133.16496 36888 ft 522 kts 75°
2026-05-07 19:22 33.52695 133.24887 36892 ft 522 kts 75°
2026-05-07 19:23 33.54599 133.33271 36895 ft 521 kts 75°
2026-05-07 19:23 33.56498 133.41663 36890 ft 521 kts 75°
2026-05-07 19:24 33.58386 133.50048 36885 ft 521 kts 75°
2026-05-07 19:24 33.60269 133.58435 36890 ft 521 kts 75°
2026-05-07 19:25 33.62146 133.66830 36890 ft 521 kts 75°
2026-05-07 19:25 33.64016 133.75222 36883 ft 521 kts 75°
2026-05-07 19:26 33.65569 133.82208 36890 ft 521 kts 75°
2026-05-07 19:26 33.67430 133.90615 36889 ft 521 kts 75°
2026-05-07 19:27 33.69287 133.99025 36890 ft 521 kts 76°
2026-05-07 19:27 33.70482 134.07590 36892 ft 520 kts 86°
2026-05-07 19:28 33.70517 134.16249 36900 ft 517 kts 93°
2026-05-07 19:28 33.70290 134.24878 36898 ft 517 kts 94°
2026-05-07 19:29 33.70093 134.33498 36891 ft 516 kts 93°
2026-05-07 19:29 33.69932 134.42125 36895 ft 517 kts 93°
2026-05-07 19:30 33.69770 134.50751 36889 ft 517 kts 93°
2026-05-07 19:30 33.69609 134.58749 36891 ft 517 kts 93°
2026-05-07 19:31 33.69431 134.67379 36892 ft 517 kts 92°
2026-05-07 19:31 33.69248 134.76002 36884 ft 517 kts 92°
2026-05-07 19:32 33.69061 134.84513 36826 ft 506 kts 92°
2026-05-07 19:32 33.68966 134.88748 36691 ft 496 kts 93°
2026-05-07 19:32 33.68874 134.92863 36442 ft 491 kts 93°
2026-05-07 19:33 33.68779 134.96943 36087 ft 487 kts 93°
2026-05-07 19:33 33.68852 135.00950 35602 ft 488 kts 84°
2026-05-07 19:33 33.69457 135.04963 35096 ft 489 kts 75°
2026-05-07 19:33 33.70499 135.08824 34708 ft 483 kts 67°
2026-05-07 19:34 33.71956 135.12429 34313 ft 477 kts 60°
2026-05-07 19:34 33.73534 135.15917 33885 ft 473 kts 60°
2026-05-07 19:34 33.75122 135.19361 33460 ft 470 kts 60°
2026-05-07 19:34 33.76697 135.22780 33028 ft 466 kts 60°
2026-05-07 19:35 33.78252 135.26189 32599 ft 463 kts 60°
2026-05-07 19:35 33.79782 135.29583 32176 ft 460 kts 61°
2026-05-07 19:35 33.81290 135.32960 31748 ft 457 kts 61°
2026-05-07 19:35 33.82785 135.36326 31329 ft 454 kts 61°
2026-05-07 19:36 33.84266 135.39669 30903 ft 452 kts 61°
2026-05-07 19:36 33.85739 135.42997 30481 ft 449 kts 62°
2026-05-07 19:36 33.87201 135.46301 30060 ft 447 kts 62°
2026-05-07 19:36 33.88656 135.49592 29644 ft 444 kts 62°
2026-05-07 19:37 33.90099 135.52861 29198 ft 442 kts 62°
2026-05-07 19:37 33.91537 135.56121 28783 ft 439 kts 62°
2026-05-07 19:37 33.92965 135.59359 28372 ft 437 kts 62°
2026-05-07 19:37 33.94387 135.62587 27952 ft 435 kts 61°
2026-05-07 19:38 33.95800 135.65797 27517 ft 433 kts 61°
2026-05-07 19:38 33.97205 135.68989 27092 ft 430 kts 61°
2026-05-07 19:38 33.98600 135.72161 26662 ft 426 kts 62°
2026-05-07 19:38 33.99979 135.75304 26274 ft 423 kts 61°
2026-05-07 19:39 34.01349 135.78428 25833 ft 421 kts 61°
2026-05-07 19:39 34.02709 135.81535 25483 ft 417 kts 61°
2026-05-07 19:39 34.04060 135.84626 25075 ft 416 kts 61°
2026-05-07 19:39 34.05406 135.87704 24657 ft 413 kts 61°
2026-05-07 19:40 34.06740 135.90755 24279 ft 411 kts 60°
2026-05-07 19:40 34.08074 135.93809 23876 ft 409 kts 60°
2026-05-07 19:40 34.09396 135.96835 23488 ft 407 kts 60°
2026-05-07 19:40 34.10708 135.99848 23076 ft 406 kts 61°
2026-05-07 19:41 34.12019 136.02858 22691 ft 405 kts 61°
2026-05-07 19:41 34.13328 136.05865 22284 ft 404 kts 61°
2026-05-07 19:41 34.14632 136.08868 21869 ft 404 kts 61°
2026-05-07 19:41 34.15934 136.11868 21470 ft 403 kts 61°
2026-05-07 19:42 34.17235 136.14862 21065 ft 402 kts 61°
2026-05-07 19:42 34.18680 136.17728 20666 ft 399 kts 51°
2026-05-07 19:42 34.20459 136.20278 20265 ft 395 kts 43°
2026-05-07 19:42 34.22471 136.22500 19848 ft 390 kts 34°
2026-05-07 19:43 34.24629 136.24474 19472 ft 387 kts 33°
2026-05-07 19:43 34.26781 136.26387 19096 ft 384 kts 33°
2026-05-07 19:43 34.28937 136.28307 18656 ft 384 kts 33°
2026-05-07 19:43 34.31073 136.30225 18238 ft 382 kts 34°
2026-05-07 19:44 34.33201 136.32151 17867 ft 382 kts 34°
2026-05-07 19:44 34.35322 136.34083 17442 ft 382 kts 34°
2026-05-07 19:44 34.37439 136.36018 17076 ft 381 kts 34°
2026-05-07 19:44 34.39550 136.37948 16666 ft 381 kts 35°
2026-05-07 19:45 34.41688 136.39840 16254 ft 378 kts 29°
2026-05-07 19:45 34.44062 136.41089 15857 ft 370 kts 13°
2026-05-07 19:45 34.46520 136.41941 15545 ft 366 kts 12°
2026-05-07 19:45 34.48977 136.42774 15163 ft 366 kts 12°
2026-05-07 19:46 34.51426 136.43615 14764 ft 366 kts 12°
2026-05-07 19:46 34.53866 136.44471 14391 ft 365 kts 13°
2026-05-07 19:46 34.56297 136.45340 13986 ft 365 kts 13°
2026-05-07 19:46 34.58705 136.46209 13602 ft 365 kts 13°
2026-05-07 19:47 34.60836 136.46984 13257 ft 364 kts 14°
2026-05-07 19:47 34.63300 136.47881 12858 ft 365 kts 14°
2026-05-07 19:47 34.65728 136.48766 12460 ft 365 kts 14°
2026-05-07 19:48 34.68125 136.49641 12065 ft 365 kts 14°
2026-05-07 19:48 34.70595 136.50544 11658 ft 365 kts 14°
2026-05-07 19:48 34.73030 136.51433 11255 ft 366 kts 14°
2026-05-07 19:48 34.75466 136.52326 10860 ft 365 kts 14°
2026-05-07 19:49 34.77899 136.53217 10449 ft 365 kts 14°
2026-05-07 19:49 34.80289 136.54093 10193 ft 360 kts 14°
2026-05-07 19:49 34.82653 136.54961 10047 ft 351 kts 14°
2026-05-07 19:49 34.84940 136.55801 9800 ft 335 kts 14°
2026-05-07 19:50 34.87103 136.56597 9584 ft 316 kts 14°
2026-05-07 19:50 34.89186 136.57363 9116 ft 309 kts 14°
2026-05-07 19:50 34.91208 136.58106 8759 ft 298 kts 14°
2026-05-07 19:50 34.93158 136.58823 8412 ft 287 kts 14°
2026-05-07 19:51 34.95031 136.59511 8081 ft 276 kts 15°
2026-05-07 19:51 34.96852 136.60180 7796 ft 275 kts 15°
2026-05-07 19:51 34.98730 136.60869 7526 ft 289 kts 15°
2026-05-07 19:51 35.00702 136.61594 7190 ft 294 kts 15°
2026-05-07 19:52 35.02631 136.62306 6848 ft 293 kts 15°
2026-05-07 19:52 35.04568 136.63021 6519 ft 289 kts 15°
2026-05-07 19:52 35.06509 136.63737 6188 ft 286 kts 15°
2026-05-07 19:52 35.08371 136.64423 5886 ft 281 kts 15°
2026-05-07 19:53 35.10140 136.65336 5544 ft 274 kts 37°
2026-05-07 19:53 35.11357 136.67050 5256 ft 263 kts 63°
2026-05-07 19:53 35.11912 136.69068 5026 ft 242 kts 81°
2026-05-07 19:53 35.12180 136.71017 4901 ft 223 kts 93°
2026-05-07 19:54 35.11777 136.72722 4827 ft 210 kts 132°
2026-05-07 19:54 35.10666 136.73770 4667 ft 199 kts 159°
2026-05-07 19:54 35.09388 136.74394 4363 ft 195 kts 164°
2026-05-07 19:54 35.08127 136.74927 4096 ft 189 kts 165°
2026-05-07 19:55 35.06891 136.75378 3851 ft 180 kts 168°
2026-05-07 19:55 35.05713 136.75717 3620 ft 172 kts 171°
2026-05-07 19:55 35.04570 136.76009 3404 ft 162 kts 172°
2026-05-07 19:55 35.03498 136.76275 3198 ft 152 kts 172°
2026-05-07 19:56 35.02484 136.76521 3027 ft 147 kts 172°
2026-05-07 19:56 35.01467 136.76767 2832 ft 151 kts 171°
2026-05-07 19:56 35.00448 136.77012 2617 ft 147 kts 170°
2026-05-07 19:56 34.99448 136.77254 2412 ft 146 kts 169°
2026-05-07 19:57 34.98456 136.77509 2217 ft 147 kts 167°
2026-05-07 19:57 34.97447 136.77776 1986 ft 149 kts 168°
2026-05-07 19:57 34.96428 136.78000 1782 ft 149 kts 168°
2026-05-07 19:57 34.95404 136.78236 1585 ft 150 kts 167°
2026-05-07 19:58 34.94386 136.78499 1450 ft 150 kts 166°
2026-05-07 19:58 34.93354 136.78779 1225 ft 155 kts 167°
2026-05-07 19:58 34.92300 136.79042 952 ft 151 kts 169°
2026-05-07 19:58 34.91285 136.79252 820 ft 152 kts 170°
2026-05-07 19:59 34.90238 136.79487 600 ft 152 kts 169°
2026-05-07 19:59 34.89203 136.79737 417 ft 152 kts 168°
2026-05-07 19:59 34.88143 136.79986 213 ft 152 kts 169°
2026-05-07 19:59 34.87116 136.80236 45 ft 151 kts 168°
2026-05-07 20:00 34.86182 136.80458 31 ft 113 kts 169°
2026-05-07 20:00 34.85665 136.80582 28 ft 26 kts 161°
2026-05-07 20:00 34.85493 136.80686 29 ft 28 kts 139°
2026-05-07 20:00 34.85350 136.80844 31 ft 28 kts 137°
2026-05-07 20:01 34.85318 136.81060 32 ft 21 kts 79°
2026-05-07 20:01 34.85283 136.81128 32 ft 11 kts 173°
2026-05-07 20:01 34.85254 136.81132 32 ft 0 kts 169°